Pineville, WV

1:35 AM EST on January 24, 2018 (GMT -0500)
Pineville

Weather History for KI16 - January, 2014

Change the Weather History Date:

Monday, January 20, 2014

  Actual Average (KBKW) Record (KBKW)
Temperature  
Mean Temperature 38 °F -  
Max Temperature 55 °F 35 °F 70 °F (1906)
Min Temperature 22 °F 20 °F -20 °F (1985)
Degree Days  
Heating Degree Days 27    
Moisture  
Dew Point 27 °F    
Average Humidity 81    
Maximum Humidity 99    
Minimum Humidity 36    
Precipitation  
Precipitation 0.00 in - - ()
Sea Level Pressure  
Sea Level Pressure 29.87 in    
Wind  
Wind Speed - (North)    
Max Wind Speed -    
Max Gust Speed -    
Visibility 10 miles    
Events      
Averages and records for this station are not official NWS values.
T = Trace of Precipitation, MM = Missing Value Source: NWS Daily Summary

Daily Weather History Graph

Daily Weather History Graph

Search for Another Location

Airport or City:

Trip Planner

Search our weather history database for the weather conditions in past years. The results will help you decide how hot, cold, wet, or windy it might be!

Date:

Astronomy

Jan. 20, 2014 Rise Set
Actual Time 7:37 AM EST 5:37 PM EST
Civil Twilight 7:09 AM EST 6:05 PM EST
Nautical Twilight 6:37 AM EST 6:37 PM EST
Astronomical Twilight 6:06 AM EST 7:08 PM EST
Moon 10:04 PM EST (1/20) 9:42 AM EST (1/20)
Length of Visible Light 10h 55m
Length of Day
9h 59m
Waning Gibbous, 83% of the Moon is Illuminated
Jan 20
Waning Gibbous
Jan 24
Last Quarter
Jan 30
New
Feb 6
First Quarter
Feb 14
Full

Hourly Weather History & Observations

Time (EST) Temp. Dew Point Humidity Pressure Visibility Wind Dir Wind Speed Gust Speed Precip Events Conditions
12:15 AM 25.7 °F 25.3 °F 99% 29.90 in 10.0 mi North - - N/A   Clear
12:35 AM 25.2 °F 24.6 °F 98% 29.90 in 10.0 mi North - - N/A   Clear
12:55 AM 25.3 °F 25.2 °F 99% 29.89 in 10.0 mi North - - N/A   Clear
1:15 AM 24.8 °F 24.6 °F 99% 29.89 in 10.0 mi North - - N/A   Clear
1:35 AM 24.6 °F 24.1 °F 98% 29.87 in 10.0 mi North - - N/A   Clear
1:55 AM 24.1 °F 23.9 °F 99% 29.88 in 10.0 mi North - - N/A   Clear
2:15 AM 24.1 °F 23.7 °F 99% 29.87 in 10.0 mi North - - N/A   Clear
2:35 AM 23.9 °F 23.5 °F 99% 29.88 in 10.0 mi North - - N/A   Clear
2:55 AM 23.7 °F 23.4 °F 99% 29.88 in 10.0 mi North - - N/A   Clear
3:15 AM 23.9 °F 23.7 °F 99% 29.88 in 10.0 mi North - - N/A   Clear
3:35 AM 23.7 °F 23.4 °F 99% 29.88 in 10.0 mi North - - N/A   Clear
3:55 AM 23.4 °F 23.0 °F 99% 29.89 in 10.0 mi North - - N/A   Clear
4:15 AM 23.5 °F 23.4 °F 99% 29.87 in 10.0 mi North - - N/A   Clear
4:35 AM 23.4 °F 23.0 °F 99% 29.87 in 10.0 mi North - - N/A   Clear
4:55 AM 23.4 °F 23.0 °F 99% 29.87 in 10.0 mi North - - N/A   Clear
5:15 AM 23.4 °F 23.0 °F 99% 29.87 in 10.0 mi North - - N/A   Clear
5:35 AM 23.0 °F 22.8 °F 99% 29.87 in 10.0 mi North - - N/A   Clear
5:55 AM 22.8 °F 22.6 °F 99% 29.87 in 10.0 mi North - - N/A   Clear
6:15 AM 22.8 °F 22.5 °F 99% 29.87 in 10.0 mi North - - N/A   Clear
6:35 AM 22.5 °F 22.1 °F 99% 29.87 in 10.0 mi North - - N/A   Clear
6:55 AM 22.3 °F 21.9 °F 99% 29.87 in 10.0 mi North - - N/A   Clear
7:15 AM 22.5 °F 22.1 °F 99% 29.88 in 10.0 mi North - - N/A   Clear
7:35 AM 22.8 °F 22.5 °F 99% 29.89 in 10.0 mi North - - N/A   Clear
7:55 AM 22.8 °F 22.5 °F 99% 29.89 in 10.0 mi North - - N/A   Clear
8:15 AM 23.0 °F 22.6 °F 99% 29.88 in 10.0 mi North - - N/A   Clear
8:35 AM 25.2 °F 25.0 °F 99% 29.89 in 10.0 mi North - - N/A   Clear
8:55 AM 27.9 °F 27.5 °F 99% 29.88 in 10.0 mi North - - N/A   Clear
9:15 AM 30.4 °F 29.7 °F 97% 29.89 in 10.0 mi North - - N/A   Clear
9:35 AM 32.4 °F 31.1 °F 95% 29.89 in 10.0 mi North - - N/A   Clear
9:55 AM 37.2 °F 32.0 °F 81% 29.89 in 10.0 mi North - - N/A   Clear
10:15 AM 41.9 °F 29.7 °F 62% 29.89 in 10.0 mi North - - N/A   Clear
10:35 AM 44.6 °F 29.5 °F 55% 29.90 in 10.0 mi North - - N/A   Clear
10:55 AM 45.9 °F 28.4 °F 51% 29.90 in 10.0 mi North - - N/A   Clear
11:15 AM 46.4 °F 28.8 °F 50% 29.89 in 10.0 mi North - - N/A   Clear
11:35 AM 47.3 °F 29.1 °F 49% 29.89 in 10.0 mi North - - N/A   Clear
11:55 AM 48.4 °F 29.1 °F 47% 29.87 in 10.0 mi North - - N/A   Clear
12:15 PM 49.3 °F 29.7 °F 47% 29.86 in 10.0 mi North - - N/A   Clear
12:35 PM 50.2 °F 29.5 °F 45% 29.85 in 10.0 mi North - - N/A   Clear
12:55 PM 50.9 °F 29.8 °F 44% 29.85 in 10.0 mi North - - N/A   Clear
1:15 PM 51.8 °F 29.5 °F 42% 29.84 in 10.0 mi North - - N/A   Clear
1:35 PM 52.2 °F 29.5 °F 42% 29.83 in 10.0 mi North - - N/A   Clear
1:55 PM 53.4 °F 29.7 °F 40% 29.83 in 10.0 mi North - - N/A   Clear
2:15 PM 54.5 °F 29.1 °F 38% 29.82 in 10.0 mi North - - N/A   Clear
2:55 PM 54.7 °F 28.2 °F 36% 29.83 in 10.0 mi North - - N/A   Clear
3:35 PM 54.7 °F 28.8 °F 37% 29.84 in 10.0 mi North - - N/A   Clear
3:55 PM 54.1 °F 28.9 °F 38% 29.84 in 10.0 mi North - - N/A   Clear
4:15 PM 51.1 °F 29.3 °F 43% 29.85 in 10.0 mi North - - N/A   Clear
4:35 PM 48.6 °F 29.3 °F 47% 29.86 in 10.0 mi North - - N/A   Clear
4:55 PM 48.6 °F 29.5 °F 48% 29.86 in 10.0 mi North - - N/A   Clear
5:15 PM 45.0 °F 30.6 °F 57% 29.87 in 10.0 mi North - - N/A   Clear
5:35 PM 41.2 °F 31.8 °F 69% 29.87 in 10.0 mi North - - N/A   Clear
5:55 PM 38.7 °F 32.0 °F 77% 29.88 in 10.0 mi North - - N/A   Clear
6:15 PM 36.9 °F 31.6 °F 81% 29.89 in 10.0 mi North - - N/A   Clear
6:35 PM 35.4 °F 31.3 °F 85% 29.89 in 10.0 mi North - - N/A   Clear
6:55 PM 34.0 °F 30.7 °F 88% 29.89 in 10.0 mi North - - N/A   Clear
7:15 PM 33.1 °F 30.4 °F 90% 29.90 in 10.0 mi North - - N/A   Clear
7:35 PM 32.2 °F 30.0 °F 92% 29.89 in 10.0 mi North - - N/A   Clear
7:55 PM 32.0 °F 30.0 °F 92% 29.89 in 10.0 mi North - - N/A   Clear
8:15 PM 31.5 °F 29.7 °F 93% 29.89 in 10.0 mi North - - N/A   Clear
8:35 PM 31.1 °F 29.3 °F 93% 29.89 in 10.0 mi North - - N/A   Clear
8:55 PM 30.9 °F 29.3 °F 94% 29.89 in 10.0 mi North - - N/A   Clear
9:35 PM 30.2 °F 28.8 °F 94% 29.87 in 10.0 mi North - - N/A   Clear
9:55 PM 30.0 °F 28.8 °F 95% 29.87 in 10.0 mi North - - N/A   Clear
10:15 PM 30.0 °F 28.6 °F 94% 29.87 in 10.0 mi North - - N/A   Clear
10:35 PM 29.8 °F 28.8 °F 96% 29.87 in 10.0 mi North - - N/A   Clear
10:55 PM 29.8 °F 28.8 °F 96% 29.86 in 10.0 mi North - - N/A   Clear
11:15 PM 29.3 °F 28.4 °F 96% 29.86 in 10.0 mi North - - N/A   Clear
11:35 PM 28.9 °F 28.0 °F 96% 29.86 in 10.0 mi North - - N/A   Clear
11:55 PM 28.4 °F 27.5 °F 96% 29.85 in 10.0 mi North - - N/A   Clear